Weather Roundup
Issued by NWS

Home | Current Version | Previous Version | Graphics & Text | Print | Product List | Glossary Off
Versions: 1 2 3 4 5 6 7 8 9 10 11 12 13 14 15 16 17 18 19 20 21 22 23 24 25 26 27 28 29 30 31 32 33 34 35 36 37 38 39 40 41 42 43 44 45 46 47 48 49 50

000
NZUS93 KARX 171610
HRRWXR

CURRENT HOURLY OBSERVATIONS ACROSS
MUCH OF THE UPPER MISSISSIPPI VALLEY
NATIONAL WEATHER SERVICE LA CROSSE WI
1100 AM CDT THU APR 17 2014


...SOUTHEAST MINNESOTA...


CITY           SKY/WX    TMP DP  RH WIND       PRES   REMARKS
ROCHESTER      CLOUDY    33  30  88 NW17      30.21R FOG     WCI  22
ROCHESTER/MAYO CLOUDY    32  29  90 W16       30.21R WCI  21
WINONA         CLOUDY    37  32  81 NW14      30.21R WCI  29
AUSTIN         CLOUDY    30  28  93 NW14      30.24R WCI  20
ALBERT LEA     CLOUDY    30  28  93 NW8       30.25R WCI  23
DODGE CENTER   CLOUDY    34  32  93 NW13      30.23R WCI  25
PRESTON        CLOUDY    35  32  89 NW14      30.20R WCI  25
OWATONNA       CLOUDY    32  28  86 W12       30.26R WCI  23
FARIBAULT      CLOUDY    34  27  75 NW10      30.26R WCI  26
$$

...ELSEWHERE IN MINNESOTA...


CITY           SKY/WX    TMP DP  RH WIND       PRES   REMARKS
MINNEAPOLIS    CLOUDY    31  28  89 NW10      30.27R WCI  22
INTNL FALLS    CLOUDY    30  18  60 NE9       30.29S WCI  22
DULUTH         PTSUNNY   29  22  75 N9        30.18R WCI  20
RED WING       CLOUDY    34  30  86 NW9       30.23R WCI  26
REDWOOD FALLS  SUNNY     29  21  72 NW12      30.31R WCI  19
MANKATO        CLOUDY    30  27  86 NW13      30.29R WCI  20
WORTHINGTON    CLOUDY    28  21  74 N12       30.32R WCI  18
FAIRMONT       CLOUDY    27  21  80 NW12      30.32R WCI  16
$$

...SOUTHWEST WISCONSIN...


CITY           SKY/WX    TMP DP  RH WIND       PRES   REMARKS
LA CROSSE      CLOUDY    41  34  76 NW12      30.18R
PRAIRIE DU CHI CLOUDY    42  33  70 W9        30.19R
BOSCOBEL       CLOUDY    44  34  67 W10       30.18R
LONE ROCK      CLOUDY    43  36  76 SW10      30.16R
PLATTEVILLE    CLOUDY    40  34  78 W12       30.19R WCI  33
FORT MC COY    CLOUDY    46  35  65 W13       30.15R
CAMP DOUGLAS   PTSUNNY   52  37  58 NW13      30.10R
VIROQUA        CLOUDY    40  37  87 W13       30.14R WCI  33
WIS DELLS      PTSUNNY   46  36  68 W8        30.12R
$$

...ELSEWHERE IN WISCONSIN...


CITY           SKY/WX    TMP DP  RH WIND       PRES   REMARKS
MILWAUKEE      PTSUNNY   52  36  54 W17G24    30.14R
MADISON        CLOUDY    43  36  76 VRB3      30.14R
GREEN BAY      CLOUDY    42  34  73 S9        30.11R
EAU CLAIRE     CLOUDY    36  33  89 W7        30.18R WCI  30
BLACK RVR FLS  CLOUDY    41  37  83 NW10G16   30.15R
MEDFORD        CLOUDY    34  32  93 S3        30.11R FOG
WAUSAU         CLOUDY    38  33  82 CALM      30.09R
WIS RAPIDS     PTSUNNY   49  34  56 NW13      30.11R
MARSHFIELD     CLOUDY    43  36  76 W9        30.11R
RICE LAKE      CLOUDY    32  29  90 NW8       30.20R WCI  25
$$

...NORTHEAST IOWA...


CITY           SKY/WX    TMP DP  RH WIND       PRES   REMARKS
WATERLOO       CLOUDY    38  30  73 NW15      30.23R WCI  29
DUBUQUE        CLOUDY    42  34  73 W14       30.19R
DECORAH        PTSUNNY   37  34  87 W9G17     30.19R WCI  31
MASON CITY     CLOUDY    33  28  81 NW17      30.27R WCI  22
CHARLES CITY   CLOUDY    37  30  75 NW17      30.24R WCI  28
OELWEIN        CLOUDY   N/A N/A N/A NW17      30.22R
$$

...ELSEWHERE IN IOWA...


CITY           SKY/WX    TMP DP  RH WIND       PRES   REMARKS
DES MOINES     CLOUDY    38  27  64 NW14      30.31R WCI  30
IOWA CITY      CLOUDY    40  32  73 NW10      30.27R WCI  33
FORT DODGE     CLOUDY    36  25  64 NW12G20   30.29S WCI  27
MARSHALLTOWN   CLOUDY    36  30  79 NW18      30.27R WCI  26
CEDAR RAPIDS   CLOUDY    39  30  70 NW14      30.24R WCI  31
$$

...NORTHERN ILLINOIS...


CITY           SKY/WX    TMP DP  RH WIND       PRES   REMARKS
CHICAGO-OHARE  MOSUNNY   54  33  45 SW18      30.16R
DUPAGE         MOSUNNY   54  38  54 SW15G21   30.17R
CHICAGO-MIDWAY PTSUNNY   55  35  47 SW15      30.18R
MOLINE         CLOUDY    45  34  65 W12       30.23R
ROCKFORD       CLOUDY    47  36  65 W9G20     30.20R
STERLING       CLOUDY    48  36  61 W14       30.20R
PEORIA         PTSUNNY   52  37  56 W8        30.23R
$$

NOTE: "FAIR" INDICATES FEW OR NO CLOUDS BELOW 12,000 FEET WITH NO
SIGNIFICANT WEATHER AND/OR OBSTRUCTIONS TO VISIBILITY. WIND
SPEEDS ARE IN MILES-PER-HOUR.



USA.gov is the U.S. government's official web portal to all federal, state and local government web resources and services.